Kerrville, TX

5:23 AM CST on January 22, 2018 (GMT -0600)
Kerrville Municipal-Schreiner

Weather History for KERV - March, 2014

Change the Weather History Date:

Friday, March 7, 2014

  Actual Average (KHDO) Record (KHDO)
Temperature  
Mean Temperature 51 °F -  
Max Temperature 66 °F 68 °F 87 °F (2006)
Min Temperature 36 °F 46 °F 32 °F (2008)
Degree Days  
Heating Degree Days 14    
Growing Degree Days 1 (Base 50)    
Moisture  
Dew Point 42 °F    
Average Humidity 69    
Maximum Humidity 89    
Minimum Humidity 44    
Precipitation  
Precipitation 0.00 in - - ()
Sea Level Pressure  
Sea Level Pressure 29.96 in    
Wind  
Wind Speed 6 mph (SSE)    
Max Wind Speed 18 mph    
Max Gust Speed 23 mph    
Visibility 10 miles    
Events      
Averages and records for this station are not official NWS values.
T = Trace of Precipitation, MM = Missing Value Source: NWS Daily Summary

Daily Weather History Graph

Daily Weather History Graph

Search for Another Location

Airport or City:

Trip Planner

Search our weather history database for the weather conditions in past years. The results will help you decide how hot, cold, wet, or windy it might be!

Date:

Astronomy

Mar. 07, 2014 Rise Set
Actual Time 6:55 AM CST 6:39 PM CST
Civil Twilight 6:31 AM CST 7:03 PM CST
Nautical Twilight 6:03 AM CST 7:31 PM CST
Astronomical Twilight 5:36 AM CST 7:58 PM CST
Moon 11:15 AM CST (3/7) 12:20 AM CST (3/7)
Length of Visible Light 12h 31m
Length of Day
11h 44m
Waxing Crescent, 42% of the Moon is Illuminated
Mar 7
Waxing Crescent
Mar 8
First Quarter
Mar 16
Full
Mar 23
Last Quarter
Mar 30
New

Hourly Weather History & Observations

Time (CST) Temp. Windchill Dew Point Humidity Pressure Visibility Wind Dir Wind Speed Gust Speed Precip Events Conditions
12:15 AM 39.6 °F - 33.6 °F 79% 30.06 in 10.0 mi Calm Calm - N/A   Clear
12:35 AM 38.1 °F - 32.0 °F 79% 30.06 in 10.0 mi Calm Calm - N/A   Clear
12:55 AM 36.7 °F - 32.7 °F 86% 30.06 in 10.0 mi Calm Calm - N/A   Clear
1:15 AM 37.4 °F - 32.7 °F 83% 30.06 in 10.0 mi Calm Calm - N/A   Clear
1:35 AM 37.4 °F - 32.9 °F 84% 30.05 in 10.0 mi Calm Calm - N/A   Clear
1:55 AM 37.4 °F - 33.1 °F 84% 30.03 in 10.0 mi Calm Calm - N/A   Clear
2:15 AM 36.7 °F - 32.4 °F 84% 30.03 in 10.0 mi Calm Calm - N/A   Clear
2:35 AM 36.5 °F - 32.5 °F 86% 30.03 in 10.0 mi Calm Calm - N/A   Clear
2:55 AM 38.5 °F - 33.8 °F 83% 30.02 in 10.0 mi Calm Calm - N/A   Clear
3:15 AM 38.5 °F - 33.8 °F 83% 30.01 in 10.0 mi Calm Calm - N/A   Clear
3:35 AM 38.5 °F - 34.5 °F 86% 30.00 in 10.0 mi Calm Calm - N/A   Clear
3:55 AM 37.4 °F - 33.8 °F 87% 30.01 in 10.0 mi Calm Calm - N/A   Clear
4:15 AM 38.5 °F - 34.2 °F 84% 30.00 in 10.0 mi Calm Calm - N/A   Clear
4:35 AM 38.5 °F 35.0 °F 34.7 °F 86% 29.99 in 10.0 mi ESE 4.6 mph - N/A   Clear
5:00 AM 36.5 °F - 33.3 °F 88% 30.01 in 10.0 mi Calm Calm - N/A   Clear
5:15 AM 37.6 °F - 34.5 °F 89% 30.01 in 10.0 mi Calm Calm - N/A   Clear
5:35 AM 42.1 °F - 36.7 °F 81% 30.01 in 10.0 mi Calm Calm - N/A   Clear
5:55 AM 42.3 °F 38.6 °F 37.0 °F 82% 30.03 in 10.0 mi South 5.8 mph - N/A   Clear
6:15 AM 42.6 °F 39.0 °F 38.3 °F 85% 30.02 in 10.0 mi SSE 5.8 mph - N/A   Clear
6:35 AM 42.8 °F 39.3 °F 38.7 °F 85% 30.02 in 10.0 mi SSE 5.8 mph - N/A   Clear
6:55 AM 43.7 °F 40.3 °F 39.2 °F 84% 30.03 in 7.0 mi ESE 5.8 mph - N/A   Clear
7:15 AM 42.8 °F 39.3 °F 38.7 °F 85% 30.03 in 7.0 mi SSE 5.8 mph - N/A   Clear
7:35 AM 43.7 °F 40.3 °F 39.6 °F 85% 30.03 in 7.0 mi SSE 5.8 mph - N/A   Clear
7:55 AM 44.8 °F 41.6 °F 40.6 °F 85% 30.03 in 7.0 mi SSE 5.8 mph - N/A   Clear
8:15 AM 47.3 °F - 42.4 °F 83% 30.04 in 7.0 mi South 12.7 mph - N/A   Clear
8:35 AM 48.6 °F - 43.2 °F 82% 30.04 in 7.0 mi South 11.5 mph - N/A   Clear
8:55 AM 51.1 °F - 44.6 °F 78% 30.05 in 7.0 mi South 12.7 mph - N/A   Clear
9:15 AM 51.1 °F - 43.0 °F 74% 30.04 in 7.0 mi South 11.5 mph - N/A   Clear
9:40 AM 52.7 °F - 43.9 °F 72% 30.02 in 10.0 mi South 16.1 mph 21.9 mph N/A   Clear
9:55 AM 53.6 °F - 43.0 °F 67% 30.01 in 10.0 mi South 16.1 mph 23.0 mph N/A   Clear
10:15 AM 57.0 °F - 44.4 °F 63% 30.01 in 10.0 mi South 13.8 mph 19.6 mph N/A   Clear
10:35 AM 57.4 °F - 45.3 °F 64% 30.00 in 10.0 mi South 18.4 mph 21.9 mph N/A   Clear
10:55 AM 58.6 °F - 45.9 °F 63% 29.99 in 10.0 mi SSE 16.1 mph 19.6 mph N/A   Clear
11:15 AM 59.0 °F - 45.9 °F 62% 29.99 in 10.0 mi South 17.3 mph - N/A   Clear
11:35 AM 60.3 °F - 46.4 °F 60% 29.98 in 10.0 mi South 15.0 mph 20.7 mph N/A   Clear
11:55 AM 60.6 °F - 46.8 °F 60% 29.98 in 10.0 mi South 13.8 mph 18.4 mph N/A   Clear
12:15 PM 61.2 °F - 46.4 °F 58% 29.98 in 10.0 mi South 13.8 mph 21.9 mph N/A   Clear
12:35 PM 61.9 °F - 46.4 °F 57% 29.96 in 10.0 mi SSE 16.1 mph 19.6 mph N/A   Clear
12:55 PM 61.3 °F - 45.7 °F 56% 29.95 in 10.0 mi South 16.1 mph - N/A   Clear
1:15 PM 62.6 °F - 44.1 °F 51% 29.94 in 10.0 mi South 18.4 mph 23.0 mph N/A   Clear
1:35 PM 62.6 °F - 43.7 °F 50% 29.92 in 10.0 mi South 17.3 mph - N/A   Clear
1:55 PM 62.6 °F - 43.5 °F 50% 29.92 in 10.0 mi South 17.3 mph 23.0 mph N/A   Clear
2:20 PM 63.7 °F - 43.9 °F 48% 29.91 in 10.0 mi South 15.0 mph 19.6 mph N/A   Clear
2:35 PM 62.6 °F - 42.8 °F 48% 29.90 in 10.0 mi South 12.7 mph - N/A   Clear
2:55 PM 61.9 °F - 44.4 °F 53% 29.90 in 10.0 mi SSE 9.2 mph - N/A   Clear
3:15 PM 62.8 °F - 44.1 °F 50% 29.88 in 10.0 mi South 11.5 mph - N/A   Clear
3:35 PM 63.7 °F - 42.1 °F 45% 29.87 in 10.0 mi South 17.3 mph - N/A   Clear
3:55 PM 64.6 °F - 42.8 °F 45% 29.87 in 10.0 mi South 18.4 mph - N/A   Clear
4:15 PM 66.2 °F - 43.5 °F 44% 29.87 in 10.0 mi South 15.0 mph - N/A   Clear
4:35 PM 65.1 °F - 43.2 °F 45% 29.86 in 10.0 mi SSE 17.3 mph 23.0 mph N/A   Clear
4:55 PM 64.2 °F - 43.5 °F 47% 29.86 in 10.0 mi South 13.8 mph - N/A   Clear
5:15 PM 63.7 °F - 43.3 °F 48% 29.86 in 10.0 mi South 12.7 mph - N/A   Clear
5:35 PM 63.7 °F - 43.7 °F 48% 29.86 in 10.0 mi South 13.8 mph - N/A   Clear
5:55 PM 63.0 °F - 44.1 °F 50% 29.86 in 10.0 mi South 12.7 mph 17.3 mph N/A   Clear
6:15 PM 62.6 °F - 44.6 °F 52% 29.87 in 10.0 mi South 11.5 mph - N/A   Clear
6:35 PM 61.5 °F - 44.8 °F 54% 29.87 in 10.0 mi SSE 6.9 mph - N/A   Clear
6:55 PM 61.2 °F - 45.7 °F 57% 29.88 in 10.0 mi SE 6.9 mph - N/A   Clear
7:15 PM 59.2 °F - 45.1 °F 60% 29.87 in 10.0 mi SE 9.2 mph - N/A   Clear
7:35 PM 59.4 °F - 45.5 °F 60% 29.88 in 10.0 mi ESE 5.8 mph - N/A   Clear
7:55 PM 59.4 °F - 45.5 °F 60% 29.88 in 10.0 mi SE 8.1 mph - N/A   Clear
8:15 PM 58.6 °F - 45.7 °F 62% 29.90 in 10.0 mi SSE 3.5 mph - N/A   Clear
8:35 PM 57.4 °F - 45.7 °F 65% 29.91 in 10.0 mi SE 4.6 mph - N/A   Clear
8:55 PM 56.3 °F - 45.9 °F 68% 29.91 in 10.0 mi SE 5.8 mph - N/A   Clear
9:15 PM 56.3 °F - 46.2 °F 69% 29.92 in 10.0 mi SE 6.9 mph - N/A   Clear
9:35 PM 56.3 °F - 47.5 °F 72% 29.92 in 10.0 mi SSE 9.2 mph - N/A   Clear
9:55 PM 56.3 °F - 47.5 °F 72% 29.92 in 10.0 mi SSE 9.2 mph - N/A   Clear
10:15 PM 56.3 °F - 48.2 °F 74% 29.91 in 10.0 mi SSE 9.2 mph - N/A   Clear
10:35 PM 56.3 °F - 48.6 °F 75% 29.90 in 10.0 mi SSE 12.7 mph - N/A   Clear
10:55 PM 56.3 °F - 49.3 °F 77% 29.91 in 10.0 mi SSE 11.5 mph - N/A   Clear
11:15 PM 56.3 °F - 49.8 °F 79% 29.91 in 10.0 mi SSE 12.7 mph 17.3 mph N/A   Clear
11:35 PM 56.3 °F - 50.2 °F 80% 29.91 in 10.0 mi SSE 11.5 mph 16.1 mph N/A   Clear
11:55 PM 53.8 °F - 48.6 °F 82% 29.90 in 10.0 mi SSE 13.8 mph 18.4 mph N/A   Clear